Overview Statistics Trail Chart Weather Telemetry Raw packets
 

This is the latest recevied weather packets stored in our database for station/object K7FLA. If no packets are shown the sender has not sent any weather packets the latest 10 day(s).

<< 1 2 3 4 5 6 >>
Time Temp. Humidity Pressure Rain* Wind** Luminosity Snow
1788661640 27.22° C 31% 1095.2 hPa 0 mm - 0 W/m² -
1788661335 27.22° C 32% 1095.4 hPa 0 mm - 0 W/m² -
1788661031 27.78° C 32% 1095.2 hPa 0 mm - 1 W/m² -
1788660730 27.78° C 29% 1095.3 hPa 0 mm - 2 W/m² -
1788660425 28.33° C 29% 1095 hPa 0 mm - 4 W/m² -
1788660114 28.33° C 29% 1095.2 hPa 0 mm - 6 W/m² -
1788659814 28.33° C 29% 1095.2 hPa 0 mm - 8 W/m² -
1788659513 28.33° C 30% 1095.1 hPa 0 mm - 11 W/m² -
1788659212 28.89° C 32% 1095 hPa 0 mm - 14 W/m² -
1788658909 28.89° C 32% 1094.9 hPa 0 mm - 16 W/m² -
1788658604 28.89° C 31% 1094.9 hPa 0 mm - 17 W/m² -
1788658299 29.44° C 31% 1094.9 hPa 0 mm - 21 W/m² -
1788657993 29.44° C 31% 1095.1 hPa 0 mm - 24 W/m² -
1788657688 29.44° C 31% 1095 hPa 0 mm - 31 W/m² -
1788657384 29.44° C 31% 1094.9 hPa 0 mm - 33 W/m² -
1788657084 30° C 31% 1095 hPa 0 mm - 47 W/m² -
1788656780 30° C 31% 1095.1 hPa 0 mm - 40 W/m² -
1788656470 30° C 31% 1095 hPa 0 mm - 51 W/m² -
1788656169 30° C 31% 1095 hPa 0 mm - 59 W/m² -
1788655869 30.56° C 30% 1095.3 hPa 0 mm - 60 W/m² -
1788655568 30.56° C 31% 1095.1 hPa 0 mm - 69 W/m² -
1788655263 30.56° C 31% 1095 hPa 0 mm - 75 W/m² -
1788654958 30.56° C 30% 1094.9 hPa 0 mm - 102 W/m² -
1788654654 30.56° C 30% 1094.8 hPa 0 mm - 121 W/m² -
1788654348 30.56° C 30% 1094.7 hPa 0 mm - 149 W/m² -

* Rain latest hour (hover to see other rain measurements)
** Current wind speed in m/s (hover to see current wind gust speed)